sat.trackr.live / text

‹ back to catalog

STARLINK-37367

NORAD 68971 · 2026-099W

PAYLOAD ACTIVE UNKNOWN

§ Identity

Operator
Country
US
Launch date
2026-05-01
Launch site
AFETR
Launch vehicle
Mass (kg)
RCS (m²)

Purposes: comms

External: N2YO · Heavens-Above · Gunter

§ Orbital elements

Epoch: 2026-09-19T22:56:54.688992Z

Period
93.85 min
Inclination
53.1615°
Eccentricity
0.0001060
Mean motion
15.34398567 rev/d
Perigee alt
462.0 km
Apogee alt
463.4 km
Semi-major
6,840.8 km
B*
3.2401e-4
RAAN
78.1396°
Arg perigee
73.4775°
Mean anomaly
286.6344°
Rev number
2,182

§ Raw data

STARLINK-373671 68971U 26099W   26262.95618853  .00010586  00000+0  32401-3 0  99922 68971  53.1615  78.1396 0001060  73.4775 286.6344 15.34398567 21825

JSON: /api/v1/satellites/68971 · /tle

For live sub-satellite position, see the globe view (requires WebGL).

§ Visibility from observer

Set your observer location to see the next 7 days of passes ≥ 10°. The values pass through the URL so the page stays shareable.

No JS? Fill the form by hand. The geolocation button needs JavaScript.